• Em Portugal
  • Lista de países
  • Para 7 dias
  • Temperatura da água
  • Mapas de satélite
  • Mapa do tempo
  • Widgets de tempo
  • user-avatar
    Iniciar Sessão

    Previsão horária em Irbid

    Hoje, 19 Setembro, Terça-feira

    Tempo Temperatura Precipitação Vento Pressão Humidade
    00:00 +25°C° 0 mm 1 m/s 709 mmHg 64%
    01:00 +25°C° 0 mm 1 m/s 709 mmHg 65%
    02:00 +24°C° 0 mm 2 m/s 708 mmHg 65%
    03:00 +24°C° 0 mm 1 m/s 708 mmHg 66%
    04:00 +23°C° 0 mm 1 m/s 709 mmHg 67%
    05:00 +23°C° 0 mm 1 m/s 709 mmHg 69%
    06:00 +24°C° 0 mm 1 m/s 709 mmHg 62%
    07:00 +26°C° 0 mm 1 m/s 709 mmHg 55%
    08:00 +27°C° 0 mm 1 m/s 709 mmHg 49%
    09:00 +29°C° 0 mm 2 m/s 710 mmHg 43%
    10:00 +30°C° 0 mm 2 m/s 710 mmHg 36%
    11:00 +33°C° 0 mm 3 m/s 710 mmHg 29%
    12:00 +34°C° 0 mm 3 m/s 710 mmHg 28%
    13:00 +34°C° 0 mm 4 m/s 710 mmHg 27%
    14:00 +35°C° 0 mm 5 m/s 710 mmHg 26%
    15:00 +34°C° 0 mm 5 m/s 710 mmHg 30%
    16:00 +33°C° 0 mm 5 m/s 710 mmHg 34%
    17:00 +30°C° 0 mm 5 m/s 709 mmHg 38%
    18:00 +29°C° 0 mm 4 m/s 709 mmHg 44%
    19:00 +28°C° 0 mm 4 m/s 710 mmHg 50%
    20:00 +27°C° 0 mm 3 m/s 710 mmHg 55%
    21:00 +26°C° 0 mm 2 m/s 710 mmHg 57%
    22:00 +26°C° 0 mm 2 m/s 710 mmHg 59%
    23:00 +25°C° 0 mm 1 m/s 710 mmHg 60%

    Amanhã, 20 Setembro, Quarta-feira

    Tempo Temperatura Precipitação Vento Pressão Humidade
    00:00 +25°C° 0 mm 1 m/s 710 mmHg 62%
    01:00 +25°C° 0 mm 1 m/s 710 mmHg 63%
    02:00 +24°C° 0 mm 1 m/s 710 mmHg 64%
    03:00 +24°C° 0 mm 1 m/s 710 mmHg 67%
    04:00 +23°C° 0 mm 1 m/s 710 mmHg 70%
    05:00 +22°C° 0 mm 1 m/s 710 mmHg 73%
    06:00 +23°C° 0 mm 1 m/s 710 mmHg 67%
    07:00 +24°C° 0 mm 1 m/s 710 mmHg 61%
    08:00 +25°C° 0 mm 1 m/s 711 mmHg 55%
    09:00 +27°C° 0 mm 2 m/s 711 mmHg 47%
    10:00 +28°C° 0 mm 2 m/s 711 mmHg 39%
    11:00 +30°C° 0 mm 3 m/s 711 mmHg 31%
    12:00 +30°C° 0 mm 4 m/s 711 mmHg 30%
    13:00 +32°C° 0 mm 4 m/s 711 mmHg 29%
    14:00 +33°C° 0 mm 5 m/s 711 mmHg 27%
    15:00 +32°C° 0 mm 5 m/s 711 mmHg 33%
    16:00 +30°C° 0 mm 5 m/s 710 mmHg 38%
    17:00 +29°C° 0 mm 5 m/s 710 mmHg 44%
    18:00 +27°C° 0 mm 5 m/s 710 mmHg 50%
    19:00 +26°C° 0 mm 4 m/s 710 mmHg 57%
    20:00 +25°C° 0 mm 3 m/s 711 mmHg 63%
    21:00 +25°C° 0 mm 3 m/s 711 mmHg 65%
    22:00 +24°C° 0 mm 2 m/s 710 mmHg 68%
    23:00 +24°C° 0 mm 2 m/s 710 mmHg 70%

    Depois de amanhã, 21 Setembro, Quinta-feira

    Tempo Temperatura Precipitação Vento Pressão Humidade
    00:00 +23°C° 0 mm 2 m/s 710 mmHg 72%
    01:00 +23°C° 0 mm 2 m/s 710 mmHg 75%
    02:00 +23°C° 0 mm 2 m/s 710 mmHg 77%
    03:00 +22°C° 0 mm 1 m/s 710 mmHg 78%
    04:00 +22°C° 0 mm 1 m/s 710 mmHg 80%
    05:00 +22°C° 0 mm 1 m/s 710 mmHg 82%
    06:00 +23°C° 0 mm 1 m/s 711 mmHg 74%
    07:00 +24°C° 0 mm 1 m/s 711 mmHg 66%
    08:00 +25°C° 0 mm 1 m/s 711 mmHg 58%
    09:00 +27°C° 0 mm 2 m/s 711 mmHg 50%
    10:00 +29°C° 0 mm 3 m/s 711 mmHg 41%
    11:00 +32°C° 0 mm 4 m/s 711 mmHg 33%
    12:00 +33°C° 0 mm 4 m/s 711 mmHg 32%
    13:00 +34°C° 0 mm 5 m/s 711 mmHg 32%
    14:00 +34°C° 0 mm 6 m/s 710 mmHg 31%
    15:00 +33°C° 0 mm 6 m/s 710 mmHg 35%
    16:00 +32°C° 0 mm 6 m/s 710 mmHg 40%
    17:00 +30°C° 0 mm 5 m/s 710 mmHg 44%
    18:00 +29°C° 0 mm 4 m/s 710 mmHg 49%
    19:00 +28°C° 0 mm 4 m/s 710 mmHg 55%
    20:00 +27°C° 0 mm 3 m/s 711 mmHg 60%
    21:00 +26°C° 0 mm 2 m/s 711 mmHg 63%
    22:00 +25°C° 0 mm 2 m/s 711 mmHg 67%
    23:00 +25°C° 0 mm 2 m/s 711 mmHg 70%

    22 Setembro, Sexta-feira

    Tempo Temperatura Precipitação Vento Pressão Humidade
    00:00 +24°C° 0 mm 2 m/s 710 mmHg 72%
    01:00 +24°C° 0 mm 2 m/s 710 mmHg 75%
    02:00 +24°C° 0 mm 2 m/s 710 mmHg 77%
    03:00 +23°C° 0 mm 2 m/s 710 mmHg 79%
    04:00 +23°C° 0 mm 2 m/s 710 mmHg 80%
    05:00 +23°C° 0 mm 1 m/s 710 mmHg 82%
    06:00 +24°C° 0 mm 2 m/s 711 mmHg 77%
    07:00 +25°C° 0 mm 2 m/s 711 mmHg 71%
    08:00 +26°C° 0 mm 3 m/s 712 mmHg 66%
    09:00 +28°C° 0 mm 3 m/s 712 mmHg 57%
    10:00 +30°C° 0 mm 4 m/s 712 mmHg 48%
    11:00 +33°C° 0 mm 4 m/s 712 mmHg 39%
    12:00 +33°C° 0 mm 5 m/s 712 mmHg 37%
    13:00 +34°C° 0 mm 6 m/s 712 mmHg 34%
    14:00 +35°C° 0 mm 6 m/s 711 mmHg 32%
    15:00 +33°C° 0 mm 6 m/s 711 mmHg 36%
    16:00 +32°C° 0 mm 6 m/s 711 mmHg 41%
    17:00 +29°C° 0 mm 6 m/s 711 mmHg 45%
    18:00 +28°C° 0 mm 5 m/s 711 mmHg 51%
    19:00 +27°C° 0 mm 4 m/s 711 mmHg 56%
    20:00 +26°C° 0 mm 3 m/s 712 mmHg 62%
    21:00 +25°C° 0 mm 3 m/s 712 mmHg 65%
    22:00 +24°C° 0 mm 2 m/s 712 mmHg 67%
    23:00 +24°C° 0 mm 2 m/s 712 mmHg 70%

    23 Setembro, Sábado

    Tempo Temperatura Precipitação Vento Pressão Humidade
    00:00 +23°C° 0 mm 2 m/s 711 mmHg 72%
    01:00 +23°C° 0 mm 2 m/s 711 mmHg 74%
    02:00 +21°C° 0 mm 2 m/s 711 mmHg 76%
    03:00 +21°C° 0 mm 2 m/s 711 mmHg 77%
    04:00 +21°C° 0 mm 2 m/s 711 mmHg 78%
    05:00 +21°C° 0 mm 1 m/s 711 mmHg 79%
    06:00 +21°C° 0 mm 2 m/s 712 mmHg 72%
    07:00 +24°C° 0 mm 2 m/s 712 mmHg 65%
    08:00 +25°C° 0 mm 2 m/s 713 mmHg 58%
    09:00 +27°C° 0 mm 2 m/s 713 mmHg 50%
    10:00 +28°C° 0 mm 3 m/s 713 mmHg 41%
    11:00 +30°C° 0 mm 3 m/s 713 mmHg 33%
    12:00 +32°C° 0 mm 4 m/s 712 mmHg 31%
    13:00 +33°C° 0 mm 4 m/s 712 mmHg 29%
    14:00 +34°C° 0 mm 5 m/s 712 mmHg 27%
    15:00 +33°C° 0 mm 5 m/s 711 mmHg 30%
    16:00 +32°C° 0 mm 5 m/s 711 mmHg 34%
    17:00 +30°C° 0 mm 5 m/s 711 mmHg 37%
    18:00 +28°C° 0 mm 4 m/s 711 mmHg 43%
    19:00 +27°C° 0 mm 3 m/s 711 mmHg 48%
    20:00 +26°C° 0 mm 3 m/s 711 mmHg 53%
    21:00 +25°C° 0 mm 3 m/s 711 mmHg 56%
    22:00 +25°C° 0 mm 2 m/s 711 mmHg 58%
    23:00 +24°C° 0 mm 2 m/s 711 mmHg 61%

    24 Setembro, Domingo

    Tempo Temperatura Precipitação Vento Pressão Humidade
    00:00 +24°C° 0 mm 2 m/s 711 mmHg 62%
    01:00 +23°C° 0 mm 2 m/s 710 mmHg 63%
    02:00 +23°C° 0 mm 1 m/s 710 mmHg 64%
    03:00 +23°C° 0 mm 1 m/s 710 mmHg 65%
    04:00 +23°C° 0 mm 1 m/s 710 mmHg 65%
    05:00 +22°C° 0 mm 1 m/s 710 mmHg 66%
    06:00 +24°C° 0 mm 2 m/s 710 mmHg 61%
    07:00 +25°C° 0 mm 2 m/s 711 mmHg 56%
    08:00 +26°C° 0 mm 2 m/s 711 mmHg 51%
    09:00 +28°C° 0 mm 3 m/s 711 mmHg 45%
    10:00 +30°C° 0 mm 3 m/s 711 mmHg 39%
    11:00 +33°C° 0 mm 3 m/s 711 mmHg 33%
    12:00 +33°C° 0 mm 4 m/s 711 mmHg 32%
    13:00 +34°C° 0 mm 4 m/s 710 mmHg 32%
    14:00 +34°C° 0 mm 5 m/s 710 mmHg 31%
    15:00 +33°C° 0 mm 5 m/s 710 mmHg 38%
    16:00 +30°C° 0 mm 5 m/s 710 mmHg 45%
    17:00 +29°C° 0 mm 6 m/s 710 mmHg 52%
    18:00 +28°C° 0 mm 5 m/s 710 mmHg 56%
    19:00 +26°C° 0 mm 4 m/s 710 mmHg 59%
    20:00 +25°C° 0 mm 3 m/s 710 mmHg 63%
    21:00 +25°C° 0 mm 3 m/s 710 mmHg 65%
    22:00 +24°C° 0 mm 3 m/s 710 mmHg 67%
    23:00 +24°C° 0 mm 2 m/s 710 mmHg 68%
    Mostrar mais